When you browse on this site, cookies collect data to enhance your experience and personalize the content and advertising you see.
Visit our Privacy Policy to learn more. By continuing to use the site, you agree to this use of cookies and data.
  • în România
  • Lista ţărilor
  • Pe 7 zile
  • Temperatura apei
  • Hartă satelitară
  • Meteo pe hartă
  • Widget-uri
  • user-avatar
    Intrare

    Meteo pe oră la Lewis

    Astăzi, 19 Iunie, Miercuri

    Timp Temperatura Precipitaţii Vânt Presiune Umiditate
    00:00 +9°C° 0 mm 7 m/s 744 mmHg 89%
    01:00 +9°C° 0.2 mm 7 m/s 744 mmHg 89%
    02:00 +9°C° 0.2 mm 7 m/s 744 mmHg 90%
    03:00 +9°C° 0.2 mm 6 m/s 743 mmHg 90%
    04:00 +9°C° 0.1 mm 6 m/s 743 mmHg 89%
    05:00 +9°C° 0.1 mm 6 m/s 743 mmHg 88%
    06:00 +10°C° 0 mm 6 m/s 743 mmHg 86%
    07:00 +10°C° 0.1 mm 7 m/s 742 mmHg 81%
    08:00 +11°C° 0.1 mm 7 m/s 742 mmHg 75%
    09:00 +12°C° 0.1 mm 7 m/s 742 mmHg 70%
    10:00 +12°C° 0.1 mm 7 m/s 742 mmHg 69%
    11:00 +12°C° 0.1 mm 8 m/s 742 mmHg 67%
    12:00 +13°C° 0.1 mm 8 m/s 742 mmHg 66%
    13:00 +13°C° 0.3 mm 8 m/s 742 mmHg 67%
    14:00 +12°C° 0.3 mm 7 m/s 742 mmHg 67%
    15:00 +12°C° 0.3 mm 7 m/s 742 mmHg 68%
    16:00 +12°C° 0 mm 7 m/s 742 mmHg 69%
    17:00 +11°C° 0 mm 7 m/s 741 mmHg 69%
    18:00 +11°C° 0 mm 7 m/s 741 mmHg 70%
    19:00 +10°C° 0 mm 7 m/s 741 mmHg 75%
    20:00 +9°C° 0 mm 6 m/s 741 mmHg 80%
    21:00 +8°C° 0 mm 6 m/s 741 mmHg 86%
    22:00 +8°C° 0 mm 6 m/s 741 mmHg 87%
    23:00 +7°C° 0 mm 6 m/s 741 mmHg 89%

    Mâine, 20 Iunie, Joi

    Timp Temperatura Precipitaţii Vânt Presiune Umiditate
    00:00 +7°C° 0 mm 6 m/s 741 mmHg 91%
    01:00 +7°C° 0 mm 6 m/s 740 mmHg 91%
    02:00 +7°C° 0 mm 6 m/s 740 mmHg 92%
    03:00 +7°C° 0 mm 6 m/s 740 mmHg 92%
    04:00 +7°C° 0.7 mm 6 m/s 740 mmHg 91%
    05:00 +8°C° 0.7 mm 7 m/s 740 mmHg 91%
    06:00 +8°C° 0.7 mm 7 m/s 740 mmHg 91%
    07:00 +9°C° 0.2 mm 8 m/s 740 mmHg 88%
    08:00 +9°C° 0.2 mm 8 m/s 741 mmHg 85%
    09:00 +8°C° 0.2 mm 9 m/s 741 mmHg 82%
    10:00 +10°C° 0.2 mm 9 m/s 741 mmHg 80%
    11:00 +10°C° 0.2 mm 9 m/s 742 mmHg 78%
    12:00 +11°C° 0.2 mm 9 m/s 742 mmHg 76%
    13:00 +10°C° 0.3 mm 9 m/s 743 mmHg 77%
    14:00 +10°C° 0.3 mm 8 m/s 743 mmHg 78%
    15:00 +9°C° 0.3 mm 8 m/s 744 mmHg 79%
    16:00 +9°C° 0.5 mm 8 m/s 744 mmHg 83%
    17:00 +8°C° 0.5 mm 7 m/s 744 mmHg 86%
    18:00 +8°C° 0.5 mm 7 m/s 745 mmHg 89%
    19:00 +6°C° 0.4 mm 7 m/s 745 mmHg 88%
    20:00 +6°C° 0.4 mm 7 m/s 746 mmHg 87%
    21:00 +6°C° 0.4 mm 7 m/s 746 mmHg 85%
    22:00 +7°C° 0.1 mm 6 m/s 746 mmHg 86%
    23:00 +5°C° 0.1 mm 6 m/s 747 mmHg 87%

    Poimâine, 21 Iunie, Vineri

    Timp Temperatura Precipitaţii Vânt Presiune Umiditate
    00:00 +6°C° 0.1 mm 5 m/s 747 mmHg 89%
    01:00 +6°C° 0.1 mm 5 m/s 747 mmHg 89%
    02:00 +6°C° 0.1 mm 5 m/s 747 mmHg 89%
    03:00 +5°C° 0.1 mm 5 m/s 748 mmHg 89%
    04:00 +6°C° 0.1 mm 5 m/s 748 mmHg 86%
    05:00 +7°C° 0.1 mm 6 m/s 748 mmHg 84%
    06:00 +8°C° 0.1 mm 6 m/s 748 mmHg 81%
    07:00 +8°C° 0.2 mm 7 m/s 748 mmHg 79%
    08:00 +9°C° 0.2 mm 7 m/s 749 mmHg 77%
    09:00 +10°C° 0.2 mm 7 m/s 749 mmHg 75%
    10:00 +10°C° 0.2 mm 7 m/s 750 mmHg 74%
    11:00 +10°C° 0.2 mm 7 m/s 750 mmHg 72%
    12:00 +11°C° 0.2 mm 8 m/s 751 mmHg 71%
    13:00 +11°C° 0.1 mm 8 m/s 751 mmHg 70%
    14:00 +11°C° 0.1 mm 8 m/s 751 mmHg 69%
    15:00 +11°C° 0.1 mm 8 m/s 752 mmHg 68%
    16:00 +11°C° 0 mm 7 m/s 752 mmHg 68%
    17:00 +10°C° 0 mm 7 m/s 752 mmHg 68%
    18:00 +10°C° 0 mm 7 m/s 753 mmHg 67%
    19:00 +9°C° 0 mm 6 m/s 753 mmHg 73%
    20:00 +8°C° 0 mm 5 m/s 753 mmHg 78%
    21:00 +8°C° 0 mm 5 m/s 753 mmHg 84%
    22:00 +7°C° 0 mm 5 m/s 754 mmHg 87%
    23:00 +7°C° 0 mm 5 m/s 754 mmHg 90%

    22 Iunie, Sâmbătă

    Timp Temperatura Precipitaţii Vânt Presiune Umiditate
    00:00 +6°C° 0 mm 5 m/s 754 mmHg 93%
    01:00 +6°C° 0 mm 5 m/s 754 mmHg 93%
    02:00 +6°C° 0 mm 5 m/s 754 mmHg 94%
    03:00 +6°C° 0 mm 5 m/s 753 mmHg 94%
    04:00 +7°C° 0 mm 6 m/s 753 mmHg 91%
    05:00 +8°C° 0 mm 6 m/s 753 mmHg 89%
    06:00 +9°C° 0 mm 6 m/s 753 mmHg 87%
    07:00 +9°C° 0.1 mm 6 m/s 753 mmHg 87%
    08:00 +9°C° 0.1 mm 6 m/s 753 mmHg 87%
    09:00 +9°C° 0.1 mm 5 m/s 753 mmHg 87%
    10:00 +11°C° 0.1 mm 6 m/s 753 mmHg 81%
    11:00 +12°C° 0.1 mm 7 m/s 753 mmHg 76%
    12:00 +15°C° 0.1 mm 7 m/s 754 mmHg 70%
    13:00 +15°C° 0.2 mm 7 m/s 754 mmHg 71%
    14:00 +15°C° 0.2 mm 7 m/s 754 mmHg 71%
    15:00 +15°C° 0.2 mm 7 m/s 754 mmHg 71%
    16:00 +14°C° 0.1 mm 6 m/s 754 mmHg 72%
    17:00 +14°C° 0.1 mm 6 m/s 754 mmHg 73%
    18:00 +14°C° 0.1 mm 6 m/s 754 mmHg 74%
    19:00 +13°C° 0 mm 5 m/s 755 mmHg 79%
    20:00 +12°C° 0 mm 4 m/s 755 mmHg 85%
    21:00 +11°C° 0 mm 3 m/s 755 mmHg 90%
    22:00 +10°C° 0 mm 3 m/s 755 mmHg 91%
    23:00 +10°C° 0 mm 3 m/s 755 mmHg 93%

    23 Iunie, Duminică

    Timp Temperatura Precipitaţii Vânt Presiune Umiditate
    00:00 +9°C° 0 mm 2 m/s 756 mmHg 94%
    01:00 +8°C° 0 mm 1 m/s 757 mmHg 89%
    02:00 +7°C° 0 mm 1 m/s 757 mmHg 89%
    03:00 +7°C° 0 mm 1 m/s 757 mmHg 89%
    04:00 +8°C° 0 mm 1 m/s 758 mmHg 85%
    05:00 +9°C° 0 mm 1 m/s 758 mmHg 82%
    06:00 +10°C° 0 mm 1 m/s 758 mmHg 78%
    07:00 +12°C° 0 mm 1 m/s 758 mmHg 73%
    08:00 +13°C° 0 mm 1 m/s 759 mmHg 67%
    09:00 +14°C° 0 mm 1 m/s 759 mmHg 61%
    10:00 +14°C° 0 mm 2 m/s 759 mmHg 61%
    11:00 +15°C° 0 mm 2 m/s 759 mmHg 60%
    12:00 +14°C° 0 mm 3 m/s 759 mmHg 59%
    13:00 +14°C° 0 mm 3 m/s 759 mmHg 60%
    14:00 +14°C° 0 mm 4 m/s 759 mmHg 61%
    15:00 +14°C° 0 mm 4 m/s 759 mmHg 62%
    16:00 +13°C° 0 mm 4 m/s 759 mmHg 64%
    17:00 +13°C° 0 mm 4 m/s 759 mmHg 66%
    18:00 +12°C° 0 mm 5 m/s 759 mmHg 68%
    19:00 +11°C° 0 mm 4 m/s 760 mmHg 74%
    20:00 +10°C° 0 mm 4 m/s 760 mmHg 79%
    21:00 +9°C° 0 mm 3 m/s 760 mmHg 85%
    22:00 +9°C° 0 mm 3 m/s 760 mmHg 87%
    23:00 +7°C° 0 mm 4 m/s 760 mmHg 89%

    24 Iunie, Luni

    Timp Temperatura Precipitaţii Vânt Presiune Umiditate
    00:00 +7°C° 0 mm 4 m/s 760 mmHg 91%
    01:00 +8°C° 0 mm 3 m/s 760 mmHg 92%
    02:00 +8°C° 0 mm 3 m/s 760 mmHg 93%
    03:00 +8°C° 0 mm 3 m/s 760 mmHg 94%
    04:00 +9°C° 0 mm 3 m/s 760 mmHg 92%
    05:00 +10°C° 0 mm 3 m/s 760 mmHg 90%
    06:00 +11°C° 0 mm 3 m/s 760 mmHg 87%
    07:00 +12°C° 0 mm 3 m/s 760 mmHg 81%
    08:00 +14°C° 0 mm 3 m/s 760 mmHg 75%
    09:00 +16°C° 0 mm 3 m/s 760 mmHg 69%
    10:00 +17°C° 0 mm 4 m/s 760 mmHg 67%
    11:00 +17°C° 0 mm 4 m/s 760 mmHg 64%
    12:00 +18°C° 0 mm 4 m/s 760 mmHg 62%
    13:00 +18°C° 0 mm 4 m/s 760 mmHg 62%
    14:00 +19°C° 0 mm 5 m/s 760 mmHg 61%
    15:00 +19°C° 0 mm 5 m/s 760 mmHg 61%
    16:00 +19°C° 0 mm 5 m/s 760 mmHg 63%
    17:00 +17°C° 0 mm 5 m/s 760 mmHg 65%
    18:00 +17°C° 0 mm 5 m/s 760 mmHg 67%
    19:00 +16°C° 0 mm 5 m/s 761 mmHg 71%
    20:00 +15°C° 0 mm 5 m/s 761 mmHg 75%
    21:00 +14°C° 0 mm 5 m/s 761 mmHg 79%
    22:00 +13°C° 0 mm 5 m/s 761 mmHg 80%
    23:00 +12°C° 0 mm 5 m/s 761 mmHg 81%
    Arată mai mult